Wetbulb
40.64 41.99 42.41 41.65 41.12 41.90 37.69 37.84 35.61 38.05 40.33 43.68 45.93 46.32 47.37 48.89 47.61 46.65 46.17 46.51 46.53 45.84 45.33 44.80 44.16 43.81 43.50 43.38 43.70 44.14 44.18 43.29 42.46 43.53 44.54 45.36 45.42 45.04 45.23 45.37 46.00 46.40 46.51 46.56
38.21 42.48 42.74 40.79 42.74 43.02 41.53 40.40 41.14 41.77 39.58 46.54 48.23 48.98 48.47 49.35 48.50 45.94 45.87 45.57 45.50 44.77 43.94 43.33 42.19 41.64 41.95 41.49 41.78 41.60 41.07 41.14 42.15 42.06 42.81 42.79 43.75 44.30 43.89 44.30 44.88 45.23 45.67 45.48
35.67 40.91 40.11 35.36 40.80 42.48 42.98 43.52 42.46 37.83 41.42 47.04 46.66 47.80 48.28 48.94 50.47 46.67 45.87 45.77 43.43 42.36 41.36 40.95 40.87 40.85 39.53 39.56 39.86 39.15 39.33 40.47 41.08 40.83 41.18 41.68 42.51 42.95 43.11 42.86 43.17 43.68 44.23 44.93
36.35 38.50 30.70 40.54 46.02 45.99 43.74 44.46 45.04 44.13 43.49 46.13 45.42 45.17 49.12 51.05 48.57 44.93 43.53 42.12 40.88 40.11 39.72 39.45 39.58 39.21 38.19 38.17 37.81 38.00 37.03 38.14 39.20 38.90 39.42 40.44 40.35 41.28 41.82 42.07 42.95 43.23 44.55 45.27
33.38 33.65 38.43 41.65 43.33 42.71 41.69 40.67 45.62 41.58 42.07 41.95 43.23 43.68 41.53 45.16 45.13 43.55 42.18 41.49 40.99 40.10 39.26 38.97 38.75 39.01 37.00 35.97 36.02 36.61 35.95 36.05 37.39 37.78 38.53 39.50 40.43 41.68 41.77 41.47 42.54 45.47 46.82 46.23
34.23 30.15 29.72 39.03 45.50 48.17 45.51 36.14 44.58 43.38 42.05 43.61 45.30 38.58 39.67 43.11 43.02 41.63 42.08 41.56 40.31 40.06 39.36 38.50 37.85 36.46 35.06 34.42 34.83 35.21 35.26 35.36 36.12 39.70 39.81 39.67 41.47 40.80 43.23 44.12 44.83 44.71 43.87 42.10
33.23 31.77 37.94 43.87 46.56 47.78 33.45 35.64 44.78 44.56 43.85 42.63 38.07 40.53 40.99 42.53 42.14 42.63 41.86 40.88 40.28 39.08 37.49 37.09 35.42 34.23 33.50 33.40 33.53 36.56 35.81 35.29 35.64 38.48 38.19 40.14 40.56 41.41 40.19 40.90 41.26 41.12 40.06 38.57
34.13 31.27 29.58 45.98 45.11 38.79 39.64 43.98 44.26 42.34 41.13 39.93 40.55 41.09 41.36 41.48 41.47 41.50 40.98 40.44 40.01 36.69 34.70 34.23 34.11 33.17 32.17 32.47 34.29 36.42 35.72 34.50 34.35 35.57 38.56 40.22 40.22 37.95 37.72 35.85 35.28 36.07 35.55 34.84
38.28 37.76 42.39 43.53 41.70 43.24 43.64 41.34 41.93 41.55 42.19 41.74 40.60 40.41 40.48 39.43 39.91 40.50 39.72 37.70 37.18 35.33 34.14 33.50 33.16 32.49 31.31 32.36 34.61 35.52 34.48 33.71 36.84 37.89 38.14 39.00 38.79 36.74 35.73 33.70 33.00 34.94 35.73 34.81
39.11 40.31 40.45 41.36 42.92 43.78 44.17 43.13 43.67 43.91 42.96 41.83 39.72 38.71 37.01 36.98 36.95 37.08 36.38 35.00 35.16 34.48 32.59 31.66 32.23 32.62 31.79 32.76 33.63 33.73 33.07 33.58 35.00 37.76 37.37 37.72 38.18 37.68 35.87 34.27 32.61 33.27 33.52 33.52
37.91 39.55 40.57 41.04 42.26 42.93 43.42 43.91 43.22 42.55 40.93 39.16 38.12 36.45 35.88 34.98 34.61 34.19 33.43 32.96 33.23 32.47 31.22 31.04 31.42 30.79 30.85 32.20 32.38 31.81 31.99 33.10 32.82 33.01 33.85 36.48 37.02 37.39 36.32 35.74 34.60 33.28 33.48 34.34
37.24 40.21 39.73 37.98 41.09 42.19 39.92 39.40 39.86 38.46 37.12 37.62 37.07 35.03 34.50 33.11 33.07 32.76 31.73 31.77 31.26 30.67 30.80 30.83 31.08 30.67 31.65 32.21 32.70 31.89 31.72 31.85 30.88 32.52 32.72 34.23 35.63 36.49 37.60 36.93 36.34 35.39 35.47 35.10
39.91 41.39 39.94 40.44 40.83 40.68 37.95 37.52 37.80 36.77 36.39 34.89 35.17 34.30 33.39 31.94 32.31 34.71 31.78 31.51 31.05 31.05 31.43 30.75 30.35 30.64 31.43 32.59 33.11 32.49 30.36 31.39 32.86 34.55 33.47 32.99 34.12 34.10 33.64 36.11 37.01 35.80 34.91 34.77
41.61 40.76 37.68 38.94 36.10 38.72 38.32 38.23 38.36 36.86 36.48 35.74 34.78 34.53 33.55 32.58 32.60 31.59 30.55 30.66 31.66 32.12 32.00 31.80 31.68 30.60 31.96 33.25 33.45 32.24 31.68 35.52 32.31 31.59 32.11 32.00 31.91 32.34 32.76 31.80 30.88 31.09 33.33 32.93
40.66 40.62 38.96 39.12 38.79 37.97 38.30 37.43 35.44 34.34 34.42 34.26 34.53 33.21 32.70 31.36 30.93 30.77 31.24 31.43 31.54 31.32 31.80 31.94 31.56 31.33 33.09 33.77 32.88 32.42 32.27 31.94 32.30 32.32 32.62 31.84 31.06 30.74 30.89 29.88 29.08 29.55 29.33 29.83
40.04 39.87 38.90 37.71 37.64 37.69 37.03 36.00 34.48 33.79 34.18 34.16 33.46 33.37 33.22 32.81 32.12 31.45 31.25 31.40 29.11 28.30 30.33 31.05 31.32 32.72 33.46 32.50 32.22 32.37 31.34 33.77 32.44 30.92 30.75 29.95 29.19 28.66 28.42 27.88 27.39 27.34 27.97 26.91
37.88 36.15 36.91 36.71 36.97 36.97 36.55 36.82 35.77 35.17 34.92 34.02 33.84 33.79 33.22 32.27 31.31 30.56 29.93 30.08 30.04 29.43 30.53 31.33 30.73 33.46 34.14 32.70 31.50 31.14 30.78 30.45 31.06 29.38 28.69 28.45 26.73 26.32 26.59 26.05 25.69 25.29 25.67 27.58
41.07 39.96 39.46 38.95 38.05 37.69 37.66 37.91 37.10 35.96 35.16 35.72 35.64 34.34 32.68 30.92 29.24 29.15 28.99 28.59 29.23 28.93 29.46 30.44 31.40 32.83 33.65 32.91 31.22 30.32 29.93 29.24 28.85 27.78 27.73 26.96 25.80 25.89 25.23 25.04 24.89 24.44 24.79 26.15
42.67 41.39 40.71 39.96 39.66 39.36 38.65 37.56 37.12 37.06 36.97 36.36 34.82 33.10 33.08 32.38 31.62 30.69 29.35 27.79 27.29 27.03 27.28 29.45 32.86 31.68 31.62 33.16 30.92 29.33 28.97 28.50 27.70 27.67 27.01 26.67 25.43 25.12 25.01 24.73 24.20 23.94 24.33 24.84
42.25 42.07 41.52 41.06 40.87 39.13 37.73 37.97 38.21 37.13 36.42 35.37 34.24 32.83 31.47 31.51 31.13 29.74 28.33 27.02 27.09 25.69 29.14 29.21 28.45 29.51 30.57 31.63 30.83 28.00 27.92 27.29 26.55 26.61 26.23 24.89 24.39 23.20 23.34 25.46 25.01 24.51 24.56 24.97
41.24 41.44 40.61 39.89 39.06 39.14 38.18 37.87 37.14 36.04 36.19 35.22 33.15 31.92 30.43 30.60 30.60 28.32 25.80 24.66 27.07 29.33 29.62 30.44 28.23 28.86 29.86 29.30 28.27 26.78 25.86 25.69 25.35 24.89 24.65 23.35 23.02 23.43 23.36 24.22 24.55 24.41 24.52 25.57
40.17 39.85 39.59 39.41 38.35 37.12 36.85 36.36 36.32 35.33 34.82 34.58 34.36 32.75 31.18 29.61 28.76 27.24 27.18 25.11 27.31 31.78 29.21 27.45 27.68 29.61 29.48 30.12 28.08 27.40 26.79 26.53 25.61 23.99 24.55 23.63 23.46 22.98 23.02 23.63 24.61 24.68 23.71 24.35
39.17 39.14 38.94 38.14 37.11 36.01 36.57 36.08 35.39 35.00 34.03 33.77 33.35 32.36 31.04 29.29 27.63 26.30 25.49 28.50 27.67 29.80 27.92 27.85 28.36 28.91 28.55 27.36 26.72 27.09 26.78 25.15 21.37 19.64 18.39 19.04 18.40 19.55 20.87 21.86 22.70 24.00 22.55 22.54
37.96 37.84 36.77 36.26 36.20 35.54 33.15 33.33 34.02 34.12 33.79 33.31 33.09 32.39 30.87 28.41 27.34 28.41 29.45 31.39 30.54 29.53 28.07 27.74 28.63 28.74 27.73 25.84 25.26 25.19 24.88 23.86 18.86 17.98 18.26 19.67 14.90 15.15 14.85 17.62 19.08 21.60 21.53 21.95
38.11 37.10 35.93 34.89 33.36 31.92 32.00 32.34 32.62 32.74 33.19 32.51 32.38 32.13 31.41 29.51 28.25 29.10 29.81 29.19 30.60 29.01 27.37 28.19 28.49 27.99 26.15 25.53 24.56 24.01 23.52 22.62 17.37 16.51 18.64 17.54 15.94 15.25 14.96 14.24 16.67 18.61 20.67 21.05
36.13 35.84 34.77 34.42 33.13 32.43 32.12 32.83 30.85 30.41 31.20 30.81 31.02 30.79 31.19 31.35 30.43 30.40 29.91 30.26 29.32 29.09 26.69 26.20 26.68 26.72 26.16 25.07 24.79 24.38 23.90 23.70 23.32 20.97 17.66 17.58 15.63 17.03 17.01 16.78 18.04 18.71 19.38 20.64
34.82 34.51 32.86 31.39 31.51 32.12 32.09 32.32 31.79 30.51 31.18 31.05 30.89 31.56 31.73 31.38 30.61 30.76 30.53 28.85 28.34 27.55 26.59 26.13 26.18 26.23 25.11 24.66 24.42 24.48 24.02 23.91 24.01 22.57 22.12 18.69 17.47 18.17 18.10 17.49 17.04 19.75 20.18 20.39
MSLP
997.27 996.29 996.22 996.60 997.18 997.78 999.06 1000.17 1000.66 1002.32 1002.59 1003.56 1003.95 1004.14 1004.63 1005.86 1007.30 1008.39 1009.61 1010.58 1011.73 1012.56 1013.08 1012.97 1012.31 1013.20 1014.14 1014.96 1015.10 1015.05 1015.51 1015.67 1015.71 1015.50 1015.35 1015.34 1015.40 1015.38 1015.36 1015.28 1015.09 1014.91 1014.88 1014.72
997.67 996.52 996.45 997.10 997.08 997.68 998.67 999.69 999.98 1001.16 1002.40 1002.93 1004.20 1004.95 1005.56 1005.90 1006.89 1008.37 1009.95 1011.64 1013.01 1013.22 1013.10 1013.04 1014.36 1014.58 1015.17 1015.43 1015.99 1016.29 1016.28 1016.22 1016.08 1015.92 1015.82 1015.84 1015.75 1015.56 1015.42 1015.26 1015.11 1015.07 1014.96 1014.79
997.26 996.60 997.30 998.05 997.52 998.19 998.86 998.88 999.29 1001.02 1001.84 1002.82 1004.49 1005.10 1005.55 1006.32 1007.24 1008.82 1010.10 1011.27 1013.16 1014.06 1014.45 1015.27 1015.33 1015.70 1016.06 1016.57 1016.81 1016.65 1016.43 1016.45 1016.37 1016.33 1016.19 1016.14 1016.03 1015.84 1015.66 1015.48 1015.29 1015.12 1014.91 1014.64
997.82 998.20 998.40 997.93 997.93 998.05 997.83 999.08 999.73 1001.07 1002.46 1003.25 1004.53 1006.11 1006.57 1007.10 1007.90 1009.41 1010.76 1012.22 1013.71 1014.47 1015.53 1015.91 1016.17 1016.62 1016.83 1017.07 1017.15 1017.07 1016.88 1016.92 1016.91 1016.78 1016.63 1016.47 1016.30 1016.00 1015.77 1015.51 1015.28 1015.07 1014.78 1014.49
998.50 998.48 998.48 998.46 998.16 997.69 997.29 1000.40 1000.82 1001.74 1003.44 1004.51 1005.61 1006.81 1008.94 1009.07 1009.91 1010.91 1012.12 1013.28 1014.38 1015.42 1015.97 1016.25 1016.63 1017.11 1017.44 1017.52 1017.24 1017.08 1017.23 1017.20 1017.13 1017.01 1016.75 1016.52 1016.20 1015.85 1015.60 1015.46 1015.17 1014.81 1014.58 1014.46
998.58 998.79 998.86 998.19 997.50 997.43 997.94 1001.02 1001.82 1002.03 1003.70 1004.92 1005.77 1008.02 1010.41 1011.10 1011.33 1012.24 1013.26 1014.09 1014.89 1015.85 1016.68 1016.58 1017.26 1017.62 1017.57 1017.63 1017.63 1017.57 1017.46 1017.37 1017.22 1016.89 1016.80 1016.61 1016.34 1016.03 1015.69 1015.31 1015.08 1014.90 1014.75 1014.73
999.40 999.56 999.12 998.43 997.82 998.14 999.31 1000.71 1001.72 1002.66 1004.05 1005.19 1006.64 1008.04 1010.53 1011.61 1012.44 1013.10 1013.87 1014.77 1015.79 1015.94 1016.57 1017.88 1018.30 1018.00 1018.04 1018.23 1018.14 1017.83 1017.72 1017.58 1017.35 1017.06 1016.91 1016.60 1016.40 1016.18 1015.94 1015.62 1015.38 1015.24 1015.19 1015.11
1000.11 1000.44 1000.39 999.11 998.88 999.55 1000.22 1001.09 1002.23 1003.62 1005.23 1006.75 1008.00 1009.81 1011.21 1012.11 1013.03 1014.05 1014.82 1015.73 1016.40 1017.28 1018.11 1018.27 1018.15 1018.21 1018.65 1018.59 1018.47 1018.15 1018.03 1017.85 1017.61 1017.27 1016.94 1016.63 1016.49 1016.50 1016.39 1016.25 1015.96 1015.72 1015.51 1015.24
1001.20 1001.92 1001.36 1000.29 1000.30 1000.69 1001.12 1001.88 1004.05 1004.19 1006.31 1007.56 1009.29 1010.75 1011.85 1013.12 1013.96 1014.79 1015.56 1016.39 1017.24 1017.81 1018.15 1018.60 1018.79 1018.73 1018.84 1018.91 1018.72 1018.61 1018.56 1018.21 1017.70 1017.32 1017.14 1016.91 1016.75 1016.75 1016.72 1016.59 1016.42 1015.96 1015.73 1015.45
1001.66 1003.03 1002.71 1002.18 1001.97 1002.44 1003.24 1003.67 1005.03 1006.02 1007.23 1008.60 1010.00 1011.61 1013.05 1014.12 1015.07 1015.92 1016.67 1016.99 1017.55 1018.20 1018.79 1019.12 1019.18 1019.07 1019.08 1018.98 1018.74 1018.75 1018.70 1018.50 1018.16 1017.77 1017.54 1017.31 1017.09 1016.92 1017.00 1017.00 1016.82 1016.51 1016.27 1015.97
1003.30 1004.01 1003.26 1004.12 1003.88 1004.02 1004.92 1005.41 1006.39 1007.94 1009.06 1010.03 1011.18 1013.01 1013.95 1014.99 1015.76 1016.68 1017.35 1017.96 1018.41 1018.83 1019.34 1019.59 1019.48 1019.36 1019.22 1018.94 1018.72 1018.69 1018.70 1018.69 1018.53 1018.23 1018.10 1017.74 1017.37 1017.30 1017.34 1017.48 1017.32 1017.15 1017.00 1016.73
1003.90 1003.89 1004.17 1005.99 1006.03 1005.88 1006.34 1007.62 1008.20 1008.96 1010.97 1012.30 1012.85 1013.97 1015.06 1016.31 1017.17 1017.79 1018.28 1018.67 1019.09 1019.47 1019.73 1019.93 1019.77 1019.65 1019.37 1019.04 1018.90 1018.91 1018.85 1018.67 1018.51 1018.43 1018.28 1018.05 1017.80 1017.49 1017.41 1017.53 1017.55 1017.63 1017.53 1017.28
1004.40 1005.28 1005.71 1006.93 1007.45 1008.01 1008.43 1009.65 1010.49 1011.29 1012.49 1013.56 1014.77 1015.24 1016.16 1017.15 1017.94 1018.46 1018.89 1019.35 1019.81 1020.14 1020.27 1020.15 1020.03 1019.90 1019.63 1019.32 1019.15 1019.21 1019.16 1018.91 1018.70 1018.63 1018.51 1018.36 1018.22 1018.12 1018.00 1017.81 1017.83 1018.05 1017.81 1017.39
1005.26 1005.57 1007.59 1008.42 1009.40 1009.77 1010.06 1011.24 1011.97 1013.04 1013.93 1014.74 1015.62 1016.43 1017.12 1018.05 1018.75 1019.28 1019.72 1020.20 1020.40 1020.53 1020.56 1020.60 1020.55 1020.39 1020.11 1019.80 1019.55 1019.59 1019.58 1019.33 1019.32 1019.25 1019.08 1019.00 1018.94 1018.88 1018.79 1018.81 1018.74 1018.46 1018.17 1017.85
1006.76 1007.24 1008.47 1009.78 1010.50 1011.25 1011.83 1012.43 1013.43 1014.48 1015.35 1016.13 1016.79 1017.38 1018.22 1018.97 1019.51 1020.05 1020.48 1020.81 1020.99 1021.07 1021.19 1021.17 1021.03 1020.90 1020.54 1020.26 1020.16 1020.20 1020.13 1020.09 1019.95 1019.86 1019.74 1019.72 1019.71 1019.66 1019.70 1019.66 1019.56 1019.24 1018.91 1018.34
1008.45 1008.98 1009.82 1010.48 1011.55 1012.37 1012.94 1013.83 1014.39 1015.55 1016.29 1017.01 1017.54 1018.33 1019.00 1019.73 1020.16 1020.68 1021.14 1021.37 1021.59 1021.92 1021.85 1021.62 1021.47 1021.30 1021.01 1020.84 1020.84 1020.84 1020.84 1020.72 1020.67 1020.68 1020.65 1020.62 1020.63 1020.68 1020.71 1020.63 1020.40 1020.13 1019.83 1019.60
1009.06 1010.50 1011.06 1011.85 1012.43 1013.17 1013.86 1014.54 1015.18 1016.03 1016.87 1017.63 1018.30 1018.99 1019.68 1020.34 1020.89 1021.49 1021.81 1022.02 1022.23 1022.32 1022.21 1022.05 1021.97 1021.67 1021.56 1021.48 1021.44 1021.43 1021.41 1021.48 1021.51 1021.56 1021.60 1021.63 1021.72 1021.67 1021.55 1021.44 1021.34 1021.14 1020.88 1020.45
1009.10 1010.08 1010.96 1011.46 1012.61 1013.58 1014.58 1015.23 1015.94 1016.66 1017.31 1018.17 1018.83 1019.52 1020.30 1020.91 1021.56 1022.04 1022.37 1022.53 1022.69 1022.73 1022.68 1022.48 1022.20 1022.09 1022.11 1022.11 1022.02 1022.03 1022.11 1022.25 1022.32 1022.46 1022.54 1022.54 1022.51 1022.40 1022.28 1022.20 1022.10 1021.86 1021.52 1020.96
1009.80 1010.52 1011.51 1012.25 1013.15 1014.07 1015.08 1015.69 1016.27 1017.12 1017.85 1018.48 1019.25 1020.06 1020.68 1021.29 1021.77 1022.34 1022.67 1022.77 1022.97 1023.09 1023.20 1022.77 1022.58 1022.53 1022.64 1022.71 1022.66 1022.68 1022.75 1022.85 1022.99 1023.10 1023.19 1023.22 1023.12 1023.03 1022.89 1022.68 1022.44 1022.19 1021.87 1021.45
1010.59 1011.16 1012.02 1012.85 1013.79 1014.36 1015.23 1015.89 1016.78 1017.56 1018.26 1018.94 1019.75 1020.43 1021.11 1021.65 1022.15 1022.60 1022.82 1023.15 1023.16 1023.13 1023.06 1022.93 1022.92 1023.06 1023.21 1023.34 1023.35 1023.37 1023.44 1023.53 1023.63 1023.77 1023.85 1023.85 1023.73 1023.57 1023.29 1022.96 1022.68 1022.44 1022.14 1021.85
1011.20 1011.86 1012.65 1013.51 1014.52 1015.18 1015.81 1016.49 1017.25 1018.07 1018.80 1019.37 1020.01 1020.77 1021.42 1022.04 1022.46 1022.82 1023.21 1023.42 1023.35 1023.10 1023.11 1023.08 1023.12 1023.40 1023.62 1023.80 1023.94 1024.03 1024.12 1024.22 1024.33 1024.45 1024.45 1024.46 1024.34 1024.10 1023.79 1023.46 1023.10 1022.76 1022.45 1022.13
1012.13 1012.73 1013.52 1014.24 1015.00 1015.96 1016.68 1017.25 1017.86 1018.57 1019.22 1019.83 1020.46 1021.16 1021.84 1022.49 1022.85 1023.18 1023.36 1023.53 1023.46 1023.25 1023.13 1023.14 1023.31 1023.58 1023.89 1024.15 1024.38 1024.53 1024.66 1024.76 1024.88 1024.94 1024.99 1024.96 1024.86 1024.62 1024.33 1023.95 1023.56 1023.20 1022.94 1022.61
1012.97 1013.54 1014.30 1015.06 1015.83 1016.71 1017.45 1018.00 1018.54 1019.02 1019.65 1020.23 1020.86 1021.51 1022.06 1022.51 1022.93 1023.40 1023.59 1023.68 1023.62 1023.56 1023.43 1023.40 1023.59 1023.93 1024.26 1024.53 1024.73 1024.95 1025.15 1025.29 1025.38 1025.40 1025.39 1025.33 1025.25 1025.11 1024.87 1024.54 1024.12 1023.75 1023.36 1022.94
1013.80 1014.52 1015.24 1015.96 1016.61 1017.43 1018.28 1018.82 1019.07 1019.52 1020.02 1020.63 1021.12 1021.54 1022.03 1022.81 1023.31 1023.36 1023.44 1023.62 1023.72 1023.73 1023.81 1023.82 1023.98 1024.25 1024.56 1024.86 1025.08 1025.27 1025.43 1025.52 1025.55 1025.60 1025.67 1025.65 1025.58 1025.37 1025.09 1024.81 1024.42 1023.99 1023.60 1023.17
1014.94 1015.55 1016.17 1016.81 1017.48 1018.18 1018.68 1019.17 1019.59 1020.08 1020.50 1020.99 1021.41 1021.77 1022.08 1022.46 1022.70 1023.28 1023.52 1023.74 1023.86 1023.97 1024.15 1024.16 1024.24 1024.53 1024.87 1025.16 1025.40 1025.56 1025.67 1025.74 1025.77 1025.80 1025.84 1025.82 1025.70 1025.49 1025.22 1024.90 1024.52 1024.09 1023.68 1023.24
1015.71 1016.31 1016.88 1017.21 1017.81 1018.50 1019.00 1019.42 1020.08 1020.51 1020.82 1021.41 1021.75 1022.03 1022.28 1022.57 1022.90 1023.31 1023.63 1023.85 1024.14 1024.32 1024.52 1024.69 1024.73 1024.91 1025.16 1025.37 1025.53 1025.65 1025.75 1025.83 1025.90 1025.96 1025.94 1025.89 1025.80 1025.56 1025.27 1024.95 1024.55 1024.09 1023.72 1023.25
1016.28 1016.78 1017.47 1018.10 1018.40 1018.69 1019.10 1019.60 1020.20 1020.70 1020.82 1021.13 1021.60 1022.02 1022.32 1022.66 1022.98 1023.26 1023.56 1023.93 1024.24 1024.53 1024.80 1024.99 1025.03 1025.11 1025.29 1025.49 1025.66 1025.77 1025.83 1025.85 1025.82 1025.88 1025.79 1025.80 1025.77 1025.52 1025.20 1024.87 1024.50 1023.97 1023.50 1023.08
Wind_Speed
7 10 12 13 15 18 9 7 8 11 17 18 19 23 24 21 16 16 14 14 11 9 7 8 13 12 9 7 6 7 7 6 6 6 7 6 6 5 4 3 4 5 6 6
11 16 15 5 5 10 9 7 6 17 3 11 10 12 18 19 20 21 15 13 10 9 11 14 7 9 7 8 7 5 5 5 5 6 6 6 5 6 5 5 6 5 6 6
4 17 13 3 2 4 4 4 15 10 7 14 15 16 16 14 17 17 17 19 12 10 9 6 7 6 8 6 4 6 6 6 6 6 5 6 6 5 5 6 5 5 6 6
10 16 5 5 8 7 16 7 14 15 10 11 15 10 8 8 11 16 18 16 12 9 7 6 6 8 6 5 5 5 7 6 6 6 5 5 5 5 5 4 5 5 6 6
5 4 7 13 7 8 14 5 8 17 16 19 19 19 14 13 13 15 14 12 11 8 6 7 8 7 6 5 6 7 7 5 5 5 5 5 6 6 5 5 5 4 4 6
4 6 3 4 10 5 3 5 10 19 21 21 12 9 5 10 15 16 14 12 12 10 8 9 7 5 6 6 6 6 6 6 5 5 6 6 6 6 5 5 4 4 5 6
4 4 3 3 3 7 3 8 15 13 14 9 6 7 14 13 14 14 13 14 9 10 11 6 3 5 7 5 6 6 5 5 5 6 5 4 6 5 6 6 6 6 5 5
4 4 3 5 4 4 5 12 16 17 18 20 22 19 14 14 15 14 14 12 11 8 6 5 6 6 6 6 5 6 6 6 5 5 5 5 5 6 7 6 5 5 5 5
4 3 6 6 8 10 14 21 13 23 20 23 20 18 16 12 12 11 12 8 7 7 7 5 4 5 6 4 5 6 6 6 6 6 6 5 5 6 5 6 5 5 6 7
3 9 12 16 19 18 16 21 19 20 21 20 22 17 16 13 11 10 8 7 6 7 6 5 4 5 3 4 4 3 4 5 5 6 5 5 4 5 5 6 6 6 7 8
13 11 19 16 17 21 21 22 24 20 19 20 20 16 14 12 12 9 7 6 6 6 6 5 5 5 5 5 6 5 3 3 3 3 5 4 4 3 5 6 7 6 7 6
5 5 15 8 12 17 22 19 20 24 17 14 17 16 15 11 8 8 8 6 7 6 7 5 5 5 6 6 5 5 5 4 2 1 3 3 4 4 4 5 7 11 10 8
7 13 18 15 17 17 22 18 18 18 17 17 13 15 13 11 7 13 9 8 7 6 5 5 6 6 6 6 5 6 5 5 4 4 4 4 3 4 5 6 8 8 13 12
18 23 15 8 13 16 21 19 21 17 15 14 14 12 13 10 11 9 8 6 6 6 6 6 6 7 6 6 6 7 6 12 5 4 5 6 6 6 5 6 6 7 13 14
13 15 19 16 17 17 17 17 18 15 14 13 11 12 11 11 10 8 6 6 6 6 6 6 6 7 6 5 7 8 6 5 6 6 6 8 7 7 6 6 6 6 8 13
16 17 16 18 16 14 16 15 17 13 12 11 12 11 11 9 9 8 6 6 6 5 5 5 6 5 6 6 6 6 6 12 10 6 6 7 7 7 6 6 7 7 7 9
20 13 14 13 13 12 13 11 13 12 12 11 12 11 11 10 9 7 6 6 6 5 5 5 5 5 6 6 6 5 5 6 11 7 7 7 6 6 6 6 6 6 6 8
11 13 12 16 14 13 12 11 12 12 12 12 11 11 10 9 8 6 5 5 5 6 6 5 5 5 6 6 6 5 5 6 6 6 6 6 6 6 6 6 6 6 5 7
13 15 13 14 13 13 12 12 11 12 12 11 11 9 8 8 7 6 5 6 6 6 3 4 8 7 6 9 7 5 5 6 5 6 6 7 5 5 5 5 4 5 6 7
13 14 14 14 13 13 12 11 12 11 10 10 10 9 9 7 6 6 5 5 2 3 1 4 5 6 6 7 7 4 5 5 5 4 5 4 4 4 4 7 6 6 6 6
15 15 16 15 13 12 11 11 11 10 9 11 10 9 8 6 6 5 6 4 3 1 3 4 4 4 4 5 5 4 4 4 4 4 4 4 4 4 5 5 5 6 6 6
13 14 14 14 13 11 9 8 9 10 9 9 9 9 8 6 6 4 2 3 2 2 3 3 4 6 5 7 4 4 4 4 4 3 4 4 4 4 5 5 6 6 7 7
11 13 12 12 12 10 8 8 8 10 10 9 9 8 6 4 4 5 3 1 2 4 4 4 6 7 7 4 4 4 4 4 2 2 2 3 3 3 4 5 5 5 6 7
12 11 10 10 11 11 10 4 7 7 7 7 8 8 8 5 2 1 2 5 7 5 5 4 6 7 6 4 4 4 4 3 2 2 2 3 2 2 3 3 4 4 5 6
10 10 11 10 9 6 8 7 7 6 7 6 6 6 6 3 4 4 4 4 7 6 5 5 7 7 5 4 4 4 3 3 2 1 1 1 2 3 3 4 4 4 5 6
10 8 6 8 8 6 6 6 6 4 5 4 3 4 4 3 4 4 4 4 4 6 4 3 4 4 4 4 4 4 3 2 2 2 1 2 3 3 3 4 4 4 4 6
6 6 6 5 3 5 5 6 7 5 4 5 5 4 5 4 4 4 5 5 5 5 4 3 3 5 4 4 4 3 2 1 1 0 2 2 2 3 4 4 4 5 6 6
Wind_Direction
274 149 147 154 180 204 189 190 167 173 158 179 173 157 148 133 123 115 114 113 119 119 116 83 74 77 71 66 53 51 63 58 48 38 39 42 45 42 17 354 335 328 323 316
224 159 139 114 39 201 194 162 127 145 105 169 142 135 143 137 129 126 119 102 103 98 90 79 74 73 74 61 53 60 70 62 48 38 32 19 6 356 355 346 335 325 320 307
123 143 110 130 235 186 177 134 139 148 175 143 155 162 153 148 138 142 136 130 128 110 86 89 83 84 73 70 60 54 51 38 36 22 16 359 343 337 336 327 319 316 308 310
122 127 161 164 239 190 112 95 105 98 95 119 122 83 92 150 138 129 120 116 111 103 105 90 85 82 80 66 63 66 49 31 19 4 351 336 329 322 310 306 311 308 299 314
119 89 101 119 166 156 131 65 121 115 113 110 110 85 48 71 101 110 108 106 103 96 88 87 81 81 83 63 53 48 32 14 1 342 322 326 326 326 323 310 307 311 310 348
94 100 124 178 210 145 137 102 149 131 138 145 143 117 121 117 111 103 104 106 109 107 105 69 56 71 72 48 38 34 15 358 337 339 347 333 325 320 309 321 334 350 4 2
80 87 57 107 249 148 146 206 159 138 136 121 94 107 132 120 104 106 109 107 98 75 85 100 97 75 59 48 26 20 7 352 343 349 335 321 330 8 353 2 355 1 7 339
54 86 88 358 66 184 190 105 120 106 106 102 106 110 112 109 111 112 113 112 107 109 106 91 72 76 63 47 356 4 2 356 351 345 352 360 24 17 17 11 357 346 355 338
46 56 351 27 104 81 104 110 120 109 115 115 115 115 111 107 107 110 112 105 107 108 89 67 63 75 63 10 13 13 8 353 3 13 13 9 30 28 22 9 357 342 358 348
89 27 65 75 80 85 95 104 107 107 114 118 115 109 107 103 104 106 106 95 97 100 94 73 38 42 34 352 347 8 3 347 350 21 37 23 28 36 40 23 11 13 5 355
92 100 77 58 78 98 94 96 98 89 100 107 108 104 105 100 94 93 89 81 98 106 95 75 54 31 8 356 2 3 345 322 321 353 8 12 23 50 59 51 39 20 12 354
115 75 103 83 92 97 96 99 100 106 95 93 104 105 103 97 102 105 98 94 85 82 83 62 37 25 3 357 9 15 8 341 322 352 357 10 11 11 49 91 48 35 16 19
107 88 92 90 87 91 99 100 99 99 102 103 95 104 99 101 95 97 85 83 83 82 80 53 34 17 358 358 28 44 34 12 38 36 14 20 17 25 22 13 41 29 20 13
107 109 75 57 103 95 94 95 92 89 90 97 103 93 98 96 95 89 84 85 82 76 59 48 27 19 353 3 53 47 37 39 41 25 38 39 37 40 36 29 14 12 18 13
74 78 105 108 99 96 100 102 96 99 103 97 96 103 103 100 96 91 82 79 77 68 53 40 31 17 6 31 55 47 40 35 38 38 41 45 37 33 32 26 17 14 11 15
98 101 103 103 107 107 108 107 108 109 107 108 105 103 103 103 98 91 82 74 79 64 43 40 39 13 32 49 52 51 44 44 52 42 41 40 35 32 29 22 20 15 15 13
115 114 115 115 120 118 115 115 117 120 119 115 117 116 111 105 96 90 83 83 81 70 56 48 43 25 54 48 53 46 47 47 48 48 41 41 35 30 24 26 20 12 3 1
112 122 127 132 130 123 120 122 124 123 124 127 125 119 118 118 124 115 106 107 91 62 44 30 50 55 58 56 56 54 57 59 57 56 50 46 38 30 26 23 18 8 359 2
128 127 130 126 128 128 130 126 120 123 125 126 123 121 122 124 119 119 116 86 85 84 1 29 62 70 66 67 62 56 61 58 50 58 51 48 35 27 23 14 5 2 4 8
121 123 122 118 121 123 121 114 120 123 122 115 116 112 111 109 117 116 99 87 93 174 105 60 80 85 87 83 76 59 58 50 47 57 52 36 26 14 4 12 10 6 3 9
115 120 120 118 117 114 116 122 123 123 129 130 126 126 124 120 113 115 97 90 332 303 72 78 122 118 107 102 86 77 73 63 52 55 45 34 17 6 1 359 1 7 3 356
124 121 121 121 118 115 117 117 117 117 118 117 116 122 124 124 123 98 83 140 262 68 24 62 118 136 119 101 102 96 77 71 67 59 46 33 25 21 14 6 3 6 359 349
119 118 117 120 124 123 117 124 126 125 124 127 133 140 143 147 147 129 117 261 102 69 54 63 117 117 107 97 97 109 103 88 79 74 46 31 13 7 7 358 351 353 348 346
114 112 112 113 118 121 119 119 116 121 127 131 137 146 142 136 124 181 149 133 114 83 74 70 122 120 107 99 93 98 100 96 75 73 65 50 6 344 345 337 336 334 342 338
117 118 119 119 117 116 119 120 107 114 121 127 136 145 143 134 141 173 152 139 110 90 72 42 97 107 107 109 109 107 113 108 108 102 47 15 339 341 326 330 325 315 330 334
134 133 133 135 139 137 133 130 130 135 126 123 118 143 144 145 121 134 158 161 119 104 89 81 104 103 113 119 112 103 98 92 75 36 327 305 318 327 322 322 321 313 316 323
95 99 100 86 95 128 134 137 140 156 145 144 151 174 162 159 160 155 147 153 147 130 123 118 121 124 127 124 118 110 98 105 149 360 338 309 309 311 319 316 310 316 321 318